RYR93SC EGKK-EIDW

Flight info

Callsign RYR93SC
Flight time 1h 0m
Altitude 34000
Route IMVUR N63 VOUGA N14 BIBPE DCT OKTAD DCT MEDOG DCT KRAGY DCT PEMOB M17 VATRY VATRY3R
Aircraft B738/M-SDE2E3FGHIRWXY/LB1

Departure

Time 2026-05-06 22:03
Airport London Gatwick Airport (EGKK)

Arrival

Time 2026-05-06 23:03
Airport Dublin Airport (EIDW)
Time Latitude Longitude Altitude Speed Heading
2026-05-06 21:16 51.15489 -0.16440 216 ft 0 kts 78°
2026-05-06 21:46 51.15490 -0.16437 204 ft 0 kts 78°
2026-05-06 21:48 51.15489 -0.16444 215 ft 3 kts 77°
2026-05-06 21:48 51.15482 -0.16482 208 ft 2 kts 78°
2026-05-06 21:48 51.15474 -0.16517 216 ft 4 kts 41°
2026-05-06 21:48 51.15453 -0.16527 214 ft 4 kts 344°
2026-05-06 21:49 51.15428 -0.16514 210 ft 3 kts 347°
2026-05-06 21:49 51.15425 -0.16513 210 ft 0 kts 348°
2026-05-06 21:50 51.15422 -0.16512 211 ft 1 kts 348°
2026-05-06 21:51 51.15419 -0.16511 211 ft 0 kts 348°
2026-05-06 21:54 51.15422 -0.16512 204 ft 2 kts 348°
2026-05-06 21:54 51.15445 -0.16520 208 ft 5 kts 342°
2026-05-06 21:54 51.15458 -0.16605 209 ft 12 kts 259°
2026-05-06 21:54 51.15450 -0.16742 212 ft 13 kts 283°
2026-05-06 21:55 51.15443 -0.16876 206 ft 12 kts 257°
2026-05-06 21:55 51.15424 -0.17010 206 ft 13 kts 258°
2026-05-06 21:55 51.15396 -0.17162 210 ft 16 kts 243°
2026-05-06 21:55 51.15364 -0.17318 207 ft 12 kts 252°
2026-05-06 21:56 51.15306 -0.17403 209 ft 12 kts 240°
2026-05-06 21:56 51.15290 -0.17530 204 ft 12 kts 259°
2026-05-06 21:56 51.15269 -0.17687 208 ft 17 kts 257°
2026-05-06 21:56 51.15238 -0.17911 208 ft 24 kts 257°
2026-05-06 21:57 51.15201 -0.18178 214 ft 24 kts 258°
2026-05-06 21:57 51.15178 -0.18397 210 ft 19 kts 256°
2026-05-06 21:57 51.15149 -0.18603 204 ft 19 kts 258°
2026-05-06 21:57 51.15122 -0.18802 204 ft 18 kts 257°
2026-05-06 21:58 51.15095 -0.18997 207 ft 19 kts 258°
2026-05-06 21:58 51.15065 -0.19221 204 ft 23 kts 257°
2026-05-06 21:58 51.15031 -0.19468 207 ft 23 kts 257°
2026-05-06 21:58 51.14997 -0.19709 208 ft 22 kts 257°
2026-05-06 21:59 51.14965 -0.19944 206 ft 21 kts 257°
2026-05-06 21:59 51.14933 -0.20171 205 ft 21 kts 257°
2026-05-06 21:59 51.14903 -0.20392 204 ft 20 kts 258°
2026-05-06 21:59 51.14873 -0.20606 206 ft 19 kts 257°
2026-05-06 22:00 51.14844 -0.20814 204 ft 19 kts 257°
2026-05-06 22:00 51.14816 -0.21014 204 ft 18 kts 257°
2026-05-06 22:00 51.14785 -0.21184 207 ft 14 kts 250°
2026-05-06 22:00 51.14763 -0.21331 204 ft 12 kts 257°
2026-05-06 22:01 51.14714 -0.21404 209 ft 11 kts 172°
2026-05-06 22:01 51.14648 -0.21347 208 ft 11 kts 149°
2026-05-06 22:01 51.14577 -0.21313 209 ft 11 kts 159°
2026-05-06 22:01 51.14521 -0.21219 207 ft 12 kts 107°
2026-05-06 22:02 51.14529 -0.21110 211 ft 9 kts 78°
2026-05-06 22:02 51.14546 -0.20983 209 ft 23 kts 78°
2026-05-06 22:02 51.14635 -0.20339 209 ft 95 kts 77°
2026-05-06 22:02 51.14823 -0.18975 210 ft 154 kts 77°
2026-05-06 22:03 51.15065 -0.17222 748 ft 161 kts 78°
2026-05-06 22:03 51.15303 -0.15488 1582 ft 161 kts 75°
2026-05-06 22:03 51.15562 -0.13668 2209 ft 178 kts 75°
2026-05-06 22:03 51.15856 -0.11615 2687 ft 200 kts 76°
2026-05-06 22:04 51.16176 -0.09371 3192 ft 215 kts 76°
2026-05-06 22:04 51.16752 -0.07137 3862 ft 222 kts 51°
2026-05-06 22:04 51.17980 -0.05635 4597 ft 228 kts 21°
2026-05-06 22:04 51.19527 -0.05277 5437 ft 228 kts 351°
2026-05-06 22:05 51.21062 -0.05959 6216 ft 231 kts 332°
2026-05-06 22:05 51.22244 -0.07652 7009 ft 232 kts 301°
2026-05-06 22:05 51.22689 -0.10117 7772 ft 236 kts 272°
2026-05-06 22:05 51.22516 -0.12733 8510 ft 241 kts 260°
2026-05-06 22:06 51.22171 -0.15393 9139 ft 251 kts 260°
2026-05-06 22:06 51.21819 -0.18256 9416 ft 274 kts 260°
2026-05-06 22:06 51.21457 -0.21296 10023 ft 283 kts 260°
2026-05-06 22:06 51.21093 -0.24408 10752 ft 286 kts 261°
2026-05-06 22:07 51.20728 -0.27546 11508 ft 289 kts 261°
2026-05-06 22:07 51.20360 -0.30714 12282 ft 292 kts 261°
2026-05-06 22:07 51.19986 -0.33921 13086 ft 296 kts 260°
2026-05-06 22:07 51.19583 -0.37162 13920 ft 300 kts 259°
2026-05-06 22:08 51.19153 -0.40434 14688 ft 303 kts 259°
2026-05-06 22:08 51.18718 -0.43733 15488 ft 305 kts 259°
2026-05-06 22:08 51.18280 -0.47063 16287 ft 308 kts 259°
2026-05-06 22:08 51.17838 -0.50427 17087 ft 312 kts 259°
2026-05-06 22:09 51.17721 -0.53938 17410 ft 330 kts 282°
2026-05-06 22:09 51.18689 -0.57343 17627 ft 351 kts 308°
2026-05-06 22:09 51.20304 -0.60360 18062 ft 363 kts 310°
2026-05-06 22:09 51.21971 -0.63428 18675 ft 369 kts 310°
2026-05-06 22:10 51.23643 -0.66540 19367 ft 370 kts 309°
2026-05-06 22:10 51.25312 -0.69694 20054 ft 373 kts 309°
2026-05-06 22:10 51.26978 -0.72883 20698 ft 376 kts 309°
2026-05-06 22:10 51.28110 -0.75066 21125 ft 379 kts 308°
2026-05-06 22:11 51.29794 -0.78334 21756 ft 382 kts 308°
2026-05-06 22:11 51.31486 -0.81633 22378 ft 385 kts 308°
2026-05-06 22:11 51.33188 -0.84959 23004 ft 389 kts 308°
2026-05-06 22:11 51.34908 -0.88330 23596 ft 392 kts 308°
2026-05-06 22:12 51.36615 -0.91680 24103 ft 395 kts 308°
2026-05-06 22:12 51.38376 -0.95139 24628 ft 397 kts 308°
2026-05-06 22:12 51.40126 -0.98582 25123 ft 400 kts 308°
2026-05-06 22:12 51.41865 -1.02006 25596 ft 403 kts 308°
2026-05-06 22:13 51.43661 -1.05549 26082 ft 405 kts 308°
2026-05-06 22:13 51.45445 -1.09072 26560 ft 408 kts 308°
2026-05-06 22:13 51.47212 -1.12566 27023 ft 410 kts 308°
2026-05-06 22:13 51.49037 -1.16180 27479 ft 413 kts 308°
2026-05-06 22:14 51.50825 -1.19727 27916 ft 415 kts 308°
2026-05-06 22:14 51.52646 -1.23343 28378 ft 417 kts 308°
2026-05-06 22:14 51.54467 -1.26963 28981 ft 415 kts 307°
2026-05-06 22:14 51.56273 -1.30558 29661 ft 412 kts 307°
2026-05-06 22:15 51.58065 -1.34131 30270 ft 410 kts 307°
2026-05-06 22:15 51.59851 -1.37698 30722 ft 409 kts 307°
2026-05-06 22:15 51.61500 -1.41414 31139 ft 408 kts 299°
2026-05-06 22:15 51.62848 -1.45419 31601 ft 406 kts 296°
2026-05-06 22:16 51.64142 -1.49455 32059 ft 406 kts 296°
2026-05-06 22:16 51.65439 -1.53483 32474 ft 406 kts 297°
2026-05-06 22:16 51.66756 -1.57499 32926 ft 405 kts 297°
2026-05-06 22:16 51.68079 -1.61494 33385 ft 403 kts 297°
2026-05-06 22:17 51.69384 -1.65489 33811 ft 403 kts 294°
2026-05-06 22:17 51.70377 -1.69707 34058 ft 405 kts 285°
2026-05-06 22:17 51.71220 -1.78728 34043 ft 407 kts 276°
2026-05-06 22:18 51.71911 -1.87678 34030 ft 399 kts 282°
2026-05-06 22:18 51.73203 -1.96406 34035 ft 402 kts 284°
2026-05-06 22:19 51.74571 -2.05176 34042 ft 404 kts 284°
2026-05-06 22:19 51.75900 -2.14010 34042 ft 406 kts 283°
2026-05-06 22:20 51.77205 -2.22895 34039 ft 408 kts 283°
2026-05-06 22:20 51.78503 -2.31813 34035 ft 408 kts 283°
2026-05-06 22:21 51.79796 -2.40743 34036 ft 409 kts 284°
2026-05-06 22:21 51.81087 -2.49699 34030 ft 409 kts 284°
2026-05-06 22:22 51.82360 -2.58675 34037 ft 411 kts 283°
2026-05-06 22:22 51.83584 -2.67709 34037 ft 412 kts 283°
2026-05-06 22:23 51.84792 -2.76715 34029 ft 413 kts 283°
2026-05-06 22:23 51.86009 -2.85808 34066 ft 414 kts 283°
2026-05-06 22:24 51.87221 -2.94909 34063 ft 414 kts 283°
2026-05-06 22:24 51.88431 -3.04033 34066 ft 415 kts 283°
2026-05-06 22:25 51.89635 -3.13171 34056 ft 415 kts 283°
2026-05-06 22:25 51.90831 -3.22315 34044 ft 415 kts 283°
2026-05-06 22:26 51.92021 -3.31468 34037 ft 415 kts 283°
2026-05-06 22:26 51.93202 -3.40614 34020 ft 414 kts 283°
2026-05-06 22:27 51.94377 -3.49761 34013 ft 414 kts 283°
2026-05-06 22:27 51.95544 -3.58916 34020 ft 415 kts 283°
2026-05-06 22:28 51.96702 -3.68076 34020 ft 415 kts 283°
2026-05-06 22:28 51.97855 -3.77247 34019 ft 416 kts 283°
2026-05-06 22:29 51.99002 -3.86439 34011 ft 416 kts 284°
2026-05-06 22:29 52.00145 -3.95652 34007 ft 417 kts 284°
2026-05-06 22:30 52.01285 -4.04897 34032 ft 419 kts 284°
2026-05-06 22:30 52.02423 -4.14191 34011 ft 421 kts 284°
2026-05-06 22:31 52.03559 -4.23542 34030 ft 423 kts 283°
2026-05-06 22:31 52.04692 -4.32934 34012 ft 424 kts 283°
2026-05-06 22:32 52.05819 -4.42345 33991 ft 421 kts 283°
2026-05-06 22:32 52.06371 -4.46985 33684 ft 416 kts 283°
2026-05-06 22:32 52.06912 -4.51553 33383 ft 409 kts 283°
2026-05-06 22:33 52.07447 -4.56072 33042 ft 404 kts 283°
2026-05-06 22:33 52.07974 -4.60539 32653 ft 401 kts 283°
2026-05-06 22:33 52.08496 -4.64976 32306 ft 398 kts 283°
2026-05-06 22:33 52.09012 -4.69376 31941 ft 395 kts 283°
2026-05-06 22:34 52.09522 -4.73749 31590 ft 392 kts 283°
2026-05-06 22:34 52.10027 -4.78084 31236 ft 389 kts 283°
2026-05-06 22:34 52.10528 -4.82396 30890 ft 387 kts 283°
2026-05-06 22:34 52.11024 -4.86681 30546 ft 384 kts 283°
2026-05-06 22:35 52.11515 -4.90937 30189 ft 382 kts 283°
2026-05-06 22:35 52.11998 -4.95144 29769 ft 380 kts 282°
2026-05-06 22:35 52.12442 -4.99035 29406 ft 377 kts 282°
2026-05-06 22:35 52.12920 -5.03220 29048 ft 373 kts 282°
2026-05-06 22:36 52.13389 -5.07349 28680 ft 370 kts 282°
2026-05-06 22:36 52.13865 -5.11386 28321 ft 366 kts 286°
2026-05-06 22:36 52.14910 -5.15084 27982 ft 357 kts 309°
2026-05-06 22:36 52.16630 -5.17932 27610 ft 351 kts 327°
2026-05-06 22:37 52.18727 -5.19894 27286 ft 347 kts 334°
2026-05-06 22:37 52.20633 -5.21439 26961 ft 345 kts 335°
2026-05-06 22:37 52.22706 -5.23076 26625 ft 343 kts 335°
2026-05-06 22:37 52.24844 -5.24772 26277 ft 341 kts 334°
2026-05-06 22:38 52.26966 -5.26477 25936 ft 339 kts 334°
2026-05-06 22:38 52.29072 -5.28187 25600 ft 337 kts 334°
2026-05-06 22:38 52.30966 -5.29735 25297 ft 335 kts 334°
2026-05-06 22:38 52.32971 -5.31383 24976 ft 334 kts 333°
2026-05-06 22:39 52.35041 -5.33087 24649 ft 332 kts 333°
2026-05-06 22:39 52.37104 -5.34787 24314 ft 331 kts 333°
2026-05-06 22:39 52.39157 -5.36483 23984 ft 330 kts 333°
2026-05-06 22:39 52.41205 -5.38175 23654 ft 329 kts 333°
2026-05-06 22:40 52.43247 -5.39865 23273 ft 328 kts 333°
2026-05-06 22:40 52.45280 -5.41550 22906 ft 327 kts 333°
2026-05-06 22:40 52.47303 -5.43227 22552 ft 325 kts 333°
2026-05-06 22:40 52.49310 -5.44893 22231 ft 322 kts 333°
2026-05-06 22:41 52.53277 -5.48191 21574 ft 318 kts 333°
2026-05-06 22:41 52.55248 -5.49827 21257 ft 316 kts 333°
2026-05-06 22:41 52.57283 -5.51164 20929 ft 314 kts 341°
2026-05-06 22:42 52.59369 -5.52199 20624 ft 313 kts 343°
2026-05-06 22:42 52.61453 -5.53184 20312 ft 311 kts 343°
2026-05-06 22:42 52.63525 -5.54184 20000 ft 310 kts 342°
2026-05-06 22:42 52.65583 -5.55209 19699 ft 308 kts 341°
2026-05-06 22:43 52.67625 -5.56249 19386 ft 307 kts 341°
2026-05-06 22:43 52.69662 -5.57296 19078 ft 306 kts 341°
2026-05-06 22:43 52.71693 -5.58343 18769 ft 305 kts 341°
2026-05-06 22:43 52.73715 -5.59386 18459 ft 304 kts 341°
2026-05-06 22:44 52.75734 -5.60428 18123 ft 304 kts 341°
2026-05-06 22:44 52.77748 -5.61468 17779 ft 303 kts 341°
2026-05-06 22:44 52.79751 -5.62503 17455 ft 301 kts 341°
2026-05-06 22:44 52.81746 -5.63535 17145 ft 299 kts 341°
2026-05-06 22:45 52.83727 -5.64561 16833 ft 298 kts 341°
2026-05-06 22:45 52.85696 -5.65583 16533 ft 296 kts 341°
2026-05-06 22:45 52.87656 -5.66600 16233 ft 294 kts 340°
2026-05-06 22:45 52.89604 -5.67612 15935 ft 293 kts 340°
2026-05-06 22:46 52.91544 -5.68621 15643 ft 292 kts 340°
2026-05-06 22:46 52.93475 -5.69626 15349 ft 290 kts 340°
2026-05-06 22:46 52.95400 -5.70629 15055 ft 289 kts 340°
2026-05-06 22:46 52.97315 -5.71628 14758 ft 288 kts 340°
2026-05-06 22:47 52.99227 -5.72626 14468 ft 287 kts 340°
2026-05-06 22:47 53.01127 -5.73619 14180 ft 287 kts 340°
2026-05-06 22:47 53.03031 -5.74615 13888 ft 286 kts 340°
2026-05-06 22:47 53.04899 -5.75592 13581 ft 285 kts 340°
2026-05-06 22:48 53.06792 -5.76584 13266 ft 285 kts 340°
2026-05-06 22:48 53.08676 -5.77572 12964 ft 283 kts 340°
2026-05-06 22:48 53.10574 -5.78567 12666 ft 282 kts 340°
2026-05-06 22:48 53.12421 -5.79620 12377 ft 279 kts 330°
2026-05-06 22:49 53.13861 -5.81644 12119 ft 269 kts 303°
2026-05-06 22:49 53.14784 -5.84321 11843 ft 267 kts 292°
2026-05-06 22:49 53.15535 -5.87178 11561 ft 272 kts 290°
2026-05-06 22:49 53.16268 -5.90116 11258 ft 277 kts 290°
2026-05-06 22:50 53.17018 -5.93110 10964 ft 281 kts 290°
2026-05-06 22:50 53.17778 -5.96112 10658 ft 280 kts 290°
2026-05-06 22:50 53.18539 -5.99092 10359 ft 279 kts 291°
2026-05-06 22:50 53.19292 -6.02018 10116 ft 276 kts 291°
2026-05-06 22:51 53.20039 -6.04912 9966 ft 269 kts 291°
2026-05-06 22:51 53.20781 -6.07785 9657 ft 269 kts 291°
2026-05-06 22:51 53.21519 -6.10642 9363 ft 267 kts 291°
2026-05-06 22:51 53.22252 -6.13477 9083 ft 266 kts 291°
2026-05-06 22:52 53.22981 -6.16303 8807 ft 265 kts 291°
2026-05-06 22:52 53.23708 -6.19127 8536 ft 264 kts 291°
2026-05-06 22:52 53.24432 -6.21940 8256 ft 264 kts 291°
2026-05-06 22:52 53.25155 -6.24754 7975 ft 263 kts 292°
2026-05-06 22:53 53.25873 -6.27553 7713 ft 262 kts 291°
2026-05-06 22:53 53.26589 -6.30345 7470 ft 261 kts 292°
2026-05-06 22:53 53.27302 -6.33128 7216 ft 260 kts 292°
2026-05-06 22:53 53.28011 -6.35899 6966 ft 259 kts 292°
2026-05-06 22:54 53.28716 -6.38659 6716 ft 258 kts 292°
2026-05-06 22:54 53.29418 -6.41412 6470 ft 257 kts 292°
2026-05-06 22:54 53.30117 -6.44156 6206 ft 256 kts 292°
2026-05-06 22:54 53.30813 -6.46892 5944 ft 255 kts 292°
2026-05-06 22:55 53.31507 -6.49622 5681 ft 255 kts 292°
2026-05-06 22:55 53.32199 -6.52347 5425 ft 254 kts 292°
2026-05-06 22:55 53.32890 -6.55071 5168 ft 254 kts 292°
2026-05-06 22:55 53.33577 -6.57774 5027 ft 249 kts 291°
2026-05-06 22:56 53.34239 -6.60394 4997 ft 239 kts 291°
2026-05-06 22:56 53.34875 -6.62912 4985 ft 233 kts 291°
2026-05-06 22:56 53.35504 -6.65403 4997 ft 231 kts 291°
2026-05-06 22:56 53.35939 -6.67026 4997 ft 231 kts 298°
2026-05-06 22:57 53.37081 -6.68850 4983 ft 229 kts 334°
2026-05-06 22:57 53.38637 -6.69305 4761 ft 229 kts
2026-05-06 22:57 53.40213 -6.69111 4587 ft 224 kts
2026-05-06 22:57 53.41747 -6.68849 4370 ft 219 kts
2026-05-06 22:58 53.43144 -6.68000 4112 ft 213 kts 40°
2026-05-06 22:58 53.43942 -6.66047 3970 ft 199 kts 74°
2026-05-06 22:58 53.44095 -6.63814 3825 ft 189 kts 93°
2026-05-06 22:58 53.44064 -6.61658 3651 ft 182 kts 95°
2026-05-06 22:59 53.43980 -6.59581 3480 ft 175 kts 97°
2026-05-06 22:59 53.43873 -6.57579 3318 ft 170 kts 98°
2026-05-06 22:59 53.43761 -6.55618 3194 ft 169 kts 98°
2026-05-06 22:59 53.43647 -6.53648 3108 ft 170 kts 98°
2026-05-06 23:00 53.43530 -6.51637 2919 ft 177 kts 98°
2026-05-06 23:00 53.43412 -6.49580 2694 ft 177 kts 98°
2026-05-06 23:00 53.43294 -6.47530 2454 ft 177 kts 99°
2026-05-06 23:00 53.43176 -6.45486 2213 ft 176 kts 99°
2026-05-06 23:01 53.43060 -6.43455 1971 ft 174 kts 99°
2026-05-06 23:01 53.42946 -6.41450 1736 ft 172 kts 100°
2026-05-06 23:01 53.42832 -6.39455 1505 ft 170 kts 99°
2026-05-06 23:01 53.42724 -6.37533 1285 ft 161 kts 98°
2026-05-06 23:02 53.42621 -6.35715 1067 ft 154 kts 98°
2026-05-06 23:02 53.42521 -6.33953 846 ft 149 kts 98°
2026-05-06 23:02 53.42426 -6.32234 640 ft 147 kts 96°
2026-05-06 23:02 53.42331 -6.30528 434 ft 147 kts 97°
2026-05-06 23:03 53.42234 -6.28828 253 ft 147 kts 97°
2026-05-06 23:03 53.42144 -6.27216 209 ft 123 kts 95°
2026-05-06 23:03 53.42080 -6.26048 210 ft 70 kts 95°
2026-05-06 23:03 53.42056 -6.25593 211 ft 23 kts 95°
2026-05-06 23:04 53.42041 -6.25330 210 ft 23 kts 95°
2026-05-06 23:04 53.42028 -6.25095 210 ft 16 kts 90°
2026-05-06 23:04 53.42107 -6.25044 210 ft 15 kts 337°
2026-05-06 23:04 53.42207 -6.25115 218 ft 17 kts 337°
2026-05-06 23:05 53.42333 -6.25206 213 ft 22 kts 336°
2026-05-06 23:05 53.42487 -6.25320 211 ft 25 kts 336°
2026-05-06 23:05 53.42648 -6.25436 210 ft 25 kts 336°
2026-05-06 23:05 53.42800 -6.25545 216 ft 23 kts 336°
2026-05-06 23:06 53.42945 -6.25650 215 ft 23 kts 336°
2026-05-06 23:06 53.43069 -6.25739 212 ft 11 kts 338°
2026-05-06 23:06 53.43130 -6.25694 210 ft 11 kts 61°
2026-05-06 23:06 53.43160 -6.25581 214 ft 10 kts 67°
2026-05-06 23:07 53.43188 -6.25470 215 ft 10 kts 67°
2026-05-06 23:07 53.43215 -6.25363 218 ft 10 kts 66°
2026-05-06 23:07 53.43230 -6.25254 210 ft 10 kts 94°
2026-05-06 23:07 53.43225 -6.25145 210 ft 9 kts 95°
2026-05-06 23:08 53.43219 -6.25042 210 ft 8 kts 97°
2026-05-06 23:08 53.43178 -6.25014 210 ft 7 kts 186°
2026-05-06 23:08 53.43128 -6.25022 210 ft 6 kts 185°
2026-05-06 23:08 53.43114 -6.25024 210 ft 1 kts 185°
2026-05-06 23:09 53.43112 -6.25024 218 ft 0 kts 185°